Souda, Greece

8:12 PM EET on November 18, 2017 (GMT +0200)
Souda Air Base

Weather History for LGSA - October, 2013

Change the Weather History Date:

Thursday, October 10, 2013

  Actual Average Record
Temperature  
Mean Temperature 70 °F -  
Max Temperature 79 °F 72 °F 82 °F (1998)
Min Temperature 60 °F 57 °F 57 °F (2011)
Cooling Degree Days 4    
Growing Degree Days 20 (Base 50)    
Moisture  
Dew Point 59 °F    
Average Humidity 69    
Maximum Humidity 88    
Minimum Humidity 42    
Precipitation  
Precipitation 0.00 in 0.10 in - ()
Sea Level Pressure  
Sea Level Pressure 30.13 in    
Wind  
Wind Speed 2 mph ()    
Max Wind Speed 12 mph    
Max Gust Speed -    
Visibility 6.2 miles    
Events      
Averages and records for this station are not official NWS values.
T = Trace of Precipitation, MM = Missing Value Source: Averaged Metar Reports

Daily Weather History Graph

Daily Weather History Graph

Search for Another Location

Airport or City:

Trip Planner

Search our weather history database for the weather conditions in past years. The results will help you decide how hot, cold, wet, or windy it might be!

Date:

Astronomy

Oct. 10, 2013 Rise Set
Actual Time 7:25 AM EEST 6:54 PM EEST
Civil Twilight 7:00 AM EEST 7:20 PM EEST
Nautical Twilight 6:30 AM EEST 7:49 PM EEST
Astronomical Twilight 6:01 AM EEST 8:19 PM EEST
Moon 12:52 PM EEST (10/10) 11:19 PM EEST (10/10)
Length of Visible Light 12h 20m
Length of Day
11h 29m
Waxing Crescent, 32% of the Moon is Illuminated
Oct 10
Waxing Crescent
Oct 12
First Quarter
Oct 19
Full
Oct 27
Last Quarter
Nov 3
New

Hourly Weather History & Observations

Time (EEST) Temp. Heat Index Dew Point Humidity Pressure Visibility Wind Dir Wind Speed Gust Speed Precip Events Conditions
12:20 AM 62.6 °F - 55.4 °F 77% 30.15 in 6.2 mi Calm Calm - N/A   Partly Cloudy
12:50 AM 62.6 °F - 57.2 °F 82% 30.15 in 6.2 mi Calm Calm - N/A   Partly Cloudy
1:20 AM 62.6 °F - 57.2 °F 82% 30.15 in 6.2 mi Calm Calm - N/A   Partly Cloudy
1:50 AM 62.6 °F - 57.2 °F 82% 30.12 in 6.2 mi Calm Calm - N/A   Partly Cloudy
2:20 AM 62.6 °F - 57.2 °F 82% 30.12 in 6.2 mi Calm Calm - N/A   Partly Cloudy
2:50 AM 62.6 °F - 57.2 °F 82% 30.12 in 6.2 mi Calm Calm - N/A   Partly Cloudy
3:00 AM 63 °F - 58 °F 77% 30.12 in 6 mi Calm Calm - -   Scattered Clouds
3:20 AM 62.6 °F - 57.2 °F 82% 30.12 in 6.2 mi Calm Calm - N/A   Partly Cloudy
3:50 AM 62.6 °F - 57.2 °F 82% 30.12 in 6.2 mi Calm Calm - N/A   Partly Cloudy
4:20 AM 62.6 °F - 57.2 °F 82% 30.12 in 6.2 mi Calm Calm - N/A   Partly Cloudy
4:50 AM 62.6 °F - 57.2 °F 82% 30.12 in 6.2 mi Calm Calm - N/A   Partly Cloudy
5:20 AM 62.6 °F - 57.2 °F 82% 30.12 in 6.2 mi Calm Calm - N/A   Partly Cloudy
5:50 AM 60.8 °F - 57.2 °F 88% 30.12 in 6.2 mi Calm Calm - N/A   Partly Cloudy
6:20 AM 60.8 °F - 57.2 °F 88% 30.12 in 6.2 mi Calm Calm - N/A   Partly Cloudy
6:50 AM 60.8 °F - 55.4 °F 82% 30.12 in 6.2 mi SE 5.8 mph - N/A   Partly Cloudy
7:20 AM 60.8 °F - 55.4 °F 82% 30.12 in 6.2 mi SE 5.8 mph - N/A   Partly Cloudy
7:50 AM 62.6 °F - 55.4 °F 77% 30.09 in - Calm Calm - N/A   Clear
8:20 AM 62.6 °F - 55.4 °F 77% 30.09 in - Calm Calm - N/A   Clear
8:50 AM 68.0 °F - 57.2 °F 68% 30.12 in - Calm Calm - N/A   Clear
9:00 AM 68 °F - 58 °F 61% 30.11 in 6 mi Calm Calm - -  
9:50 AM 71.6 °F - 53.6 °F 53% 30.12 in - Calm Calm - N/A   Clear
10:20 AM 71.6 °F - 53.6 °F 53% 30.12 in - Calm Calm - N/A   Clear
10:50 AM 75.2 °F - 51.8 °F 44% 30.12 in - Calm Calm - N/A   Clear
11:20 AM 75.2 °F - 51.8 °F 44% 30.12 in - Calm Calm - N/A   Clear
11:50 AM 78.8 °F - 53.6 °F 42% 30.15 in - NW 4.6 mph - N/A   Clear
12:20 PM 78.8 °F - 53.6 °F 42% 30.15 in - West 6.9 mph - N/A   Clear
12:50 PM 78.8 °F - 53.6 °F 42% 30.15 in - NW 6.9 mph - N/A   Clear
1:20 PM 78.8 °F - 53.6 °F 42% 30.15 in - West 6.9 mph - N/A   Clear
1:50 PM 78.8 °F - 55.4 °F 44% 30.15 in - NW 11.5 mph - N/A   Clear
2:20 PM 78.8 °F - 55.4 °F 44% 30.15 in - NW 11.5 mph - N/A   Clear
2:50 PM 80.6 °F 81.5 °F 60.8 °F 51% 30.12 in - WNW 11.5 mph - N/A   Clear
3:00 PM 80 °F - 61 °F 43% 30.13 in 6 mi WNW 11.5 mph - -   Clear
3:20 PM 80.6 °F 81.5 °F 60.8 °F 51% 30.12 in - WNW 11.5 mph - N/A   Clear
3:50 PM 78.8 °F - 60.8 °F 54% 30.12 in 6.2 mi WNW 9.2 mph - N/A   Partly Cloudy
4:20 PM 78.8 °F - 60.8 °F 54% 30.12 in 6.2 mi WNW 9.2 mph - N/A   Partly Cloudy
4:50 PM 78.8 °F - 62.6 °F 57% 30.12 in 6.2 mi WNW 9.2 mph - N/A   Partly Cloudy
5:20 PM 78.8 °F - 62.6 °F 57% 30.12 in 6.2 mi WNW 9.2 mph - N/A   Partly Cloudy
5:50 PM 77.0 °F - 62.6 °F 61% 30.12 in 6.2 mi West 6.9 mph - N/A   Partly Cloudy
6:20 PM 77.0 °F - 62.6 °F 61% 30.12 in 6.2 mi West 6.9 mph - N/A   Partly Cloudy
6:50 PM 73.4 °F - 62.6 °F 69% 30.15 in 6.2 mi West 4.6 mph - N/A   Partly Cloudy
7:20 PM 71.6 °F - 62.6 °F 73% 30.15 in 6.2 mi WNW 6.9 mph - N/A   Partly Cloudy
7:50 PM 69.8 °F - 64.4 °F 83% 30.12 in 6.2 mi WNW 6.9 mph - N/A   Partly Cloudy
8:20 PM 69.8 °F - 64.4 °F 83% 30.12 in 6.2 mi WNW 6.9 mph - N/A   Partly Cloudy
8:50 PM 69.8 °F - 64.4 °F 83% 30.12 in 6.2 mi Calm Calm - N/A   Partly Cloudy
9:00 PM 70 °F - 64 °F 75% 30.13 in 6 mi Calm Calm - -   Scattered Clouds
9:20 PM 69.8 °F - 64.4 °F 83% 30.12 in 6.2 mi Calm Calm - N/A   Partly Cloudy
9:50 PM 69.8 °F - 64.4 °F 83% 30.12 in 6.2 mi SSW 4.6 mph - N/A   Partly Cloudy
10:20 PM 69.8 °F - 64.4 °F 83% 30.12 in 6.2 mi Calm Calm - N/A   Partly Cloudy
10:50 PM 68.0 °F - 62.6 °F 83% 30.12 in 6.2 mi SSE 4.6 mph - N/A   Partly Cloudy
11:20 PM 68.0 °F - 62.6 °F 83% 30.12 in 6.2 mi Calm Calm - N/A   Partly Cloudy
11:50 PM 68.0 °F - 60.8 °F 78% 30.12 in 6.2 mi Calm Calm - N/A   Partly Cloudy